Location: Unspecified
(0.0000°N, 0.0000°E)
Time: 15:45:43
(UTC+00:00)

Hubble Space Telescope - Pass Details

Date: 15 January 2018
Orbit: 537 x 541 km, 28.5° (Epoch: 22 January)

Event Time Altitude Azimuth Distance (km) Brightness Sun altitude
Rises 18:43:52 0° 234° (SW) 2,673 6.2 -8.0°
Reaches altitude 10° 18:46:09 10° 231° (SW) 1,782 4.8 -8.5°
Maximum altitude 18:50:13 63° 150° (SSE) 598 0.9 -9.5°
Enters shadow 18:53:40 14° 70° (ENE) 1,534 2.4 -10.3°
